星链-1532 (STARLINK-1532 )

导读 | 星芒AI

STARLINK-1532 是 SpaceX Starlink 卫星互联网项目中的第 1532 颗卫星,属于低轨卫星群的一部分,旨在为全球用户提供高速互联网服务。该卫星于 2023 年发射,运行在约 550 公里的轨道高度,具备先进的通信技术和激光链路,以提升数据传输效率和网络稳定性。作为 Starlink 计划的重要组成部分,它有助于扩大覆盖范围,特别是在偏远和网络基础设施薄弱的地区。

基本信息
目录编号:
46068
目录名称:
STARLINK-1532
国际标识:
2020-055AT
轨道中心:
EARTH
卫星名称:
星链-1532
卫星全名:
星链-1532 (STARLINK-1532 )
卫星状态:
已陨落 最后检测时间 2024-08-16
发射日期:
2020-08-07 UTC
国别 :
美国 (US)
星等 :
--
轨道信息
数据来源 国际轨道数据
星历时间: 2024-08-16T08:48:56+0800
轨道信息已过期443天
半长轴: 6608.034km
偏心率: 0.0008439
轨道倾角: 53.031°
近地点辐角 262.905°
升交点赤经 68.430°
平近点角 185.551°
近地点: 224.322km
远地点: 235.476km
周期: 89.098分钟
每日圈数: 16.161975
详细信息
固有亮度:
5
最大亮度:
2.5
卫星平台:
Starlink V1.0
覆盖范围:
全球
运营商:
太空探索技术公司
运营商所在国:
美国
制造商(研发单位):
太空探索技术公司
制造商所在国:
美国
使用方式:
暂无
卫星简介
星链(Starlink)计划是由太空探索技术公司(SpaceX)提出的一个巨型低轨卫星互联网星座项目,计划在2019年至2024年间在太空搭建由约1.2万颗卫星组成的“星链”网络,其中1584颗将部署在地球上空550千米处的近地轨道,并从2020年开始工作。该卫星仍在工作。